Wind_Speed
13 11 10 9 8 7 6 5 4 4 4 3 3 3 4 5 6 6 7 7 8 8 9 9 9 10 10 10 10 11 11 12 13 13 13 14 14 14 15 15 15 15 16
14 13 12 11 10 8 7 6 5 5 5 4 4 4 5 6 6 7 7 8 9 9 9 9 10 10 11 11 11 12 12 13 13 14 15 15 15 15 16 15 16 16 16
16 15 14 13 11 10 9 7 7 7 6 6 5 6 6 6 7 7 8 9 9 10 10 10 10 11 12 12 13 13 14 14 15 15 16 16 16 16 16 16 17 17 17
18 16 15 14 13 12 11 9 9 8 7 7 7 7 7 7 8 8 9 10 10 10 10 11 11 12 12 13 14 14 15 16 16 17 17 17 17 17 17 17 17 18 18
19 18 17 16 15 14 13 11 10 9 9 8 8 8 8 9 9 9 10 10 10 11 11 12 12 13 13 14 15 15 16 17 17 18 18 18 18 18 18 18 18 19 19
21 19 18 17 16 15 14 13 12 10 10 9 9 9 9 10 10 10 10 11 11 12 12 13 13 14 15 15 16 17 17 18 18 19 19 19 19 19 19 19 20 20 20
22 20 19 18 17 16 16 14 13 12 11 11 11 11 11 11 11 11 12 12 12 12 13 14 14 15 16 16 17 17 18 18 19 19 20 20 20 20 20 21 21 21 22
24 22 20 19 19 18 17 16 15 14 13 12 12 12 12 12 12 13 13 13 13 14 14 15 15 16 17 17 18 18 19 19 20 20 20 21 21 21 22 22 22 23 23
25 24 22 21 20 19 18 17 16 15 14 14 14 14 14 14 14 14 14 14 15 15 15 16 16 17 17 18 19 19 20 20 21 21 21 21 22 22 23 23 24 24 24
26 25 24 23 22 20 19 18 18 17 16 16 15 15 15 15 15 15 15 15 16 16 17 17 17 18 18 19 19 20 21 21 21 22 22 23 23 24 24 24 25 25 25
27 27 26 24 23 22 21 20 19 18 18 17 17 17 16 16 16 16 17 17 17 18 18 18 19 19 19 20 20 21 21 22 22 23 23 24 25 25 26 26 26 26 27
29 28 27 26 25 24 23 22 21 20 19 19 18 18 18 17 17 18 18 18 18 19 19 19 20 20 20 21 21 22 22 23 23 24 25 25 26 26 26 27 27 28 29
31 30 28 27 27 25 25 24 23 22 21 20 20 20 19 19 19 19 19 20 20 20 20 21 21 22 22 22 23 23 24 24 25 25 26 26 27 27 28 28 29 30 30
32 31 30 29 28 27 27 26 25 24 23 22 21 21 21 21 21 21 21 21 21 22 22 23 23 24 24 24 25 25 26 26 26 27 27 28 28 29 30 30 31 31 32
34 33 32 30 29 28 28 27 26 25 25 24 23 23 23 23 23 22 22 22 23 23 24 24 25 25 26 26 26 27 28 28 28 29 29 30 31 31 32 33 33 33 34
36 35 34 32 31 30 29 28 27 27 26 26 25 25 25 24 24 24 24 24 25 25 25 25 26 26 27 27 28 28 29 30 30 31 31 32 32 33 34 35 35 36 36
38 37 36 35 34 32 31 30 29 28 28 27 27 26 26 26 26 26 25 26 26 26 27 27 27 27 28 28 29 30 31 31 32 33 33 33 34 35 36 36 37 37 38
39 38 37 36 36 34 33 32 32 31 29 29 28 28 28 27 27 27 27 27 27 27 28 28 29 28 29 29 30 31 32 33 33 34 35 35 36 37 37 37 38 39 39
40 39 38 37 36 36 35 34 34 33 31 30 30 29 28 28 28 29 29 28 28 29 29 30 30 30 30 30 31 32 33 34 35 35 36 37 37 38 39 39 39 40 40
41 40 40 39 37 37 36 36 35 34 33 32 31 31 30 29 30 30 30 30 30 30 30 30 31 31 31 31 32 32 33 35 35 36 37 38 38 39 39 40 41 41 42
42 42 41 40 39 38 37 36 35 35 34 34 33 33 32 31 31 31 31 31 31 31 31 31 32 32 32 32 33 34 34 35 36 37 38 38 39 39 39 40 41 42 43
43 43 42 41 40 39 38 37 36 36 35 35 35 35 34 34 33 33 32 32 32 32 32 32 32 32 33 34 34 35 36 36 37 38 38 39 39 40 40 41 42 43 45
44 43 43 43 41 40 40 39 38 37 37 37 36 36 35 35 35 35 34 33 33 33 33 32 33 33 34 35 36 36 37 37 38 38 39 40 40 41 42 43 44 45 47
45 44 44 44 43 42 42 40 40 39 38 38 37 37 37 36 35 35 35 34 34 34 34 34 35 35 36 37 37 38 38 39 39 39 40 41 42 43 45 46 47 48 49
46 45 45 45 43 43 43 42 41 41 40 39 37 37 37 36 35 35 35 35 35 35 35 35 36 36 37 37 37 38 38 39 40 41 40 42 44 45 47 48 50 50 51
46 45 45 44 44 44 44 43 43 42 41 40 39 38 37 37 37 36 36 36 36 36 36 36 37 37 38 39 39 39 40 41 42 42 43 44 45 46 48 49 50 51 50
Wind_Direction
220 222 224 226 231 234 236 243 255 267 271 282 300 314 322 324 325 324 325 327 330 332 331 329 329 328 328 328 327 326 326 326 325 323 322 321 319 318 317 316 314 313 311
224 225 228 230 234 238 240 247 258 267 269 277 289 301 310 313 315 316 319 322 323 325 325 324 323 324 325 325 324 324 324 324 322 320 319 318 317 316 315 314 312 311 310
226 227 230 233 236 239 241 246 254 263 268 273 282 292 300 304 307 309 313 316 318 319 320 319 319 320 320 321 322 322 322 322 321 319 318 316 315 315 314 313 311 309 309
228 230 231 234 236 238 241 246 251 257 264 269 275 284 291 296 299 303 308 311 314 315 316 316 314 315 317 316 317 319 319 319 318 318 317 315 314 314 313 311 309 308 308
229 229 232 235 236 238 242 245 249 255 261 266 272 280 289 292 296 299 304 308 311 312 313 313 312 313 314 314 315 316 315 316 316 316 316 314 313 313 312 311 310 309 308
230 229 231 235 237 240 242 245 247 252 257 263 270 277 285 289 292 295 300 304 306 308 310 310 311 311 312 312 313 314 314 315 314 314 314 313 312 311 310 310 309 308 307
230 230 231 233 236 239 242 244 247 251 255 261 268 274 279 284 287 291 296 299 301 304 307 309 310 310 310 310 311 311 312 312 312 312 313 312 311 310 308 308 307 306 305
230 230 231 233 235 238 240 243 248 251 254 260 265 271 276 280 284 288 291 294 297 301 304 306 307 308 309 310 310 310 310 310 310 311 311 311 310 309 308 307 307 306 304
231 231 232 233 234 237 240 243 247 251 254 259 264 268 273 278 282 286 289 291 294 298 301 303 304 305 306 309 310 310 310 310 310 311 311 310 310 309 308 307 306 305 304
230 231 232 234 234 237 239 243 247 251 255 259 263 267 272 276 281 284 287 290 292 295 298 300 301 303 304 306 308 309 309 309 310 310 310 309 309 308 307 306 305 305 304
230 231 232 234 235 238 241 244 248 252 254 258 263 267 270 273 278 282 285 288 291 294 296 297 299 300 302 304 306 306 307 308 308 308 308 308 308 307 307 306 305 305 304
232 232 232 234 236 239 242 245 248 251 254 257 261 265 268 271 275 279 284 286 289 292 293 294 296 297 299 302 303 304 304 305 306 306 307 307 307 307 306 305 304 304 304
232 232 232 234 236 240 243 246 248 251 253 256 259 262 266 269 273 277 281 283 286 290 291 292 294 296 298 300 301 301 302 303 304 304 305 306 307 307 307 306 305 304 304
233 233 233 234 236 240 243 246 248 250 252 255 257 260 264 268 272 276 279 280 283 287 290 291 292 294 296 298 299 300 300 301 302 303 305 306 306 307 307 306 305 304 304
233 233 234 235 237 240 242 245 248 250 252 254 257 260 263 267 272 274 276 278 281 285 288 290 292 294 295 296 298 299 300 300 301 302 304 305 305 305 305 306 305 304 303
233 234 235 236 237 239 241 244 247 250 252 253 256 260 262 266 270 273 275 277 280 283 286 288 291 293 294 297 297 298 300 300 300 302 303 304 305 305 305 305 305 304 304
233 234 236 237 238 240 242 243 246 250 252 254 257 260 262 265 269 271 274 276 278 281 284 287 289 291 293 295 297 298 298 300 300 301 303 303 304 304 304 304 304 304 304
233 234 236 237 240 241 243 245 246 249 251 255 257 260 262 264 267 270 273 275 277 280 283 286 288 289 292 293 295 297 298 299 300 301 302 304 304 303 303 304 304 304 305
233 234 235 238 239 241 243 245 247 248 251 253 255 257 260 263 266 269 272 275 278 279 281 283 286 287 290 292 294 297 299 299 300 301 302 303 304 304 303 303 303 304 304
233 235 236 238 240 242 244 246 248 249 250 251 253 256 259 263 267 269 272 275 278 279 280 282 285 287 289 291 293 295 298 300 301 302 303 302 303 304 303 303 303 303 303
234 235 237 239 241 243 244 246 248 248 250 251 253 256 259 262 266 269 273 275 276 278 280 282 284 287 289 290 293 294 297 299 300 302 303 303 304 304 303 303 303 303 303
234 235 237 239 241 243 244 246 248 248 249 252 254 256 259 262 266 269 272 274 275 278 280 281 284 286 287 290 292 294 296 298 300 301 302 303 303 303 303 303 303 303 303
234 235 238 240 242 243 245 247 248 249 249 251 252 255 259 262 265 268 270 272 275 277 279 281 283 287 289 291 292 294 295 297 298 300 302 302 303 303 304 303 304 305 305
234 236 237 240 242 244 245 247 249 250 250 251 253 256 259 262 265 267 269 272 275 276 278 280 283 286 289 291 292 294 295 297 298 299 301 303 304 304 304 304 305 305 306
234 236 238 240 241 243 245 247 249 249 250 251 253 256 259 262 265 267 269 271 273 276 278 280 283 286 288 291 293 294 296 298 299 300 302 304 305 305 306 306 306 306 306
235 236 239 241 242 243 245 246 247 247 250 252 254 256 258 261 264 267 269 271 273 276 278 280 283 285 288 290 292 294 296 298 299 301 302 304 305 306 307 307 307 306 307
Height
5863 5864 5866 5867 5868 5869 5870 5871 5871 5872 5872 5873 5873 5874 5874 5874 5874 5875 5875 5875 5874 5874 5874 5873 5873 5872 5872 5871 5870 5870 5869 5868 5867 5866 5865 5864 5863 5862 5861 5859 5858 5857 5856
5861 5862 5864 5865 5867 5868 5869 5869 5870 5871 5871 5872 5872 5873 5873 5873 5873 5874 5874 5873 5873 5873 5872 5872 5872 5871 5870 5869 5869 5868 5867 5866 5865 5864 5863 5862 5861 5859 5858 5857 5856 5855 5854
5858 5860 5862 5864 5865 5866 5867 5868 5869 5870 5870 5871 5871 5872 5872 5872 5872 5872 5872 5872 5872 5872 5871 5871 5870 5870 5869 5868 5867 5866 5865 5864 5863 5862 5861 5860 5858 5857 5856 5855 5853 5852 5851
5856 5858 5859 5861 5863 5864 5865 5866 5867 5868 5869 5869 5870 5870 5871 5871 5871 5871 5871 5871 5870 5870 5870 5869 5869 5868 5867 5866 5865 5864 5864 5862 5861 5860 5859 5857 5856 5854 5853 5852 5850 5849 5848
5853 5855 5857 5859 5861 5862 5863 5864 5865 5866 5867 5868 5868 5869 5869 5869 5869 5869 5869 5869 5869 5868 5868 5868 5867 5866 5865 5864 5863 5862 5861 5860 5859 5858 5856 5855 5853 5852 5850 5849 5847 5846 5845
5849 5851 5854 5856 5858 5860 5861 5862 5863 5864 5865 5866 5866 5867 5867 5867 5868 5868 5868 5867 5867 5867 5866 5866 5865 5864 5863 5862 5861 5860 5859 5858 5856 5855 5854 5852 5851 5849 5847 5846 5844 5843 5841
5845 5848 5851 5853 5855 5857 5858 5860 5861 5862 5863 5864 5864 5865 5865 5865 5866 5866 5866 5865 5865 5865 5864 5863 5863 5862 5861 5860 5859 5858 5856 5855 5854 5852 5851 5849 5847 5846 5844 5842 5841 5839 5837
5842 5844 5847 5849 5852 5854 5855 5857 5858 5859 5860 5861 5862 5863 5863 5863 5863 5863 5863 5863 5863 5862 5862 5861 5860 5859 5858 5857 5856 5855 5854 5852 5850 5849 5847 5845 5844 5842 5840 5838 5837 5835 5833
5837 5841 5843 5846 5848 5850 5852 5854 5855 5857 5858 5858 5859 5860 5860 5861 5861 5861 5861 5861 5860 5860 5859 5858 5857 5857 5856 5854 5853 5852 5851 5849 5847 5846 5844 5842 5840 5838 5836 5835 5833 5831 5829
5833 5836 5839 5842 5845 5847 5849 5851 5852 5853 5854 5856 5856 5857 5857 5858 5858 5858 5858 5858 5857 5857 5856 5855 5855 5854 5853 5852 5850 5849 5847 5846 5844 5842 5841 5839 5837 5834 5832 5830 5828 5826 5824
5829 5832 5835 5838 5841 5843 5845 5847 5849 5850 5851 5852 5853 5854 5854 5855 5855 5855 5855 5855 5854 5854 5853 5852 5851 5850 5849 5848 5847 5846 5844 5842 5841 5839 5837 5835 5833 5830 5828 5826 5824 5822 5819
5824 5827 5830 5834 5836 5839 5841 5843 5845 5846 5847 5848 5849 5850 5851 5851 5851 5851 5851 5851 5851 5850 5850 5849 5848 5847 5846 5845 5844 5842 5840 5839 5837 5835 5833 5831 5828 5826 5824 5821 5819 5816 5814
5819 5822 5826 5829 5832 5834 5837 5839 5841 5842 5843 5844 5845 5846 5847 5847 5847 5848 5848 5847 5847 5846 5846 5845 5844 5843 5842 5841 5840 5838 5836 5835 5833 5831 5828 5826 5824 5821 5819 5816 5813 5811 5808
5813 5817 5820 5824 5827 5829 5832 5834 5836 5838 5839 5840 5841 5842 5843 5843 5843 5843 5844 5843 5843 5842 5842 5841 5840 5839 5838 5837 5835 5834 5832 5830 5828 5826 5824 5821 5819 5816 5813 5811 5808 5805 5802
5808 5811 5815 5818 5821 5824 5827 5829 5831 5833 5834 5836 5837 5837 5838 5839 5839 5839 5839 5839 5838 5838 5837 5837 5836 5835 5834 5832 5831 5829 5827 5825 5823 5821 5818 5816 5813 5810 5808 5805 5802 5799 5795
5801 5805 5809 5812 5815 5818 5821 5823 5826 5827 5829 5831 5832 5833 5833 5834 5834 5834 5834 5834 5834 5833 5832 5832 5831 5830 5829 5827 5826 5824 5822 5820 5817 5815 5813 5810 5807 5804 5801 5798 5795 5792 5788
5795 5799 5803 5806 5809 5812 5815 5818 5820 5822 5824 5825 5827 5828 5828 5829 5829 5829 5829 5829 5828 5828 5827 5827 5826 5825 5823 5822 5820 5818 5816 5814 5812 5809 5807 5804 5801 5798 5795 5791 5788 5784 5781
5788 5792 5796 5800 5803 5806 5809 5811 5814 5816 5818 5819 5821 5822 5823 5823 5823 5823 5823 5823 5823 5823 5822 5821 5820 5819 5818 5817 5815 5813 5810 5808 5806 5803 5800 5797 5794 5791 5787 5784 5780 5777 5773
5781 5785 5789 5793 5796 5799 5802 5805 5808 5810 5812 5813 5815 5816 5816 5817 5817 5818 5818 5818 5817 5817 5817 5816 5815 5814 5812 5811 5809 5807 5804 5802 5799 5796 5793 5790 5787 5783 5780 5776 5772 5768 5764
5774 5778 5782 5786 5789 5792 5795 5798 5801 5803 5805 5807 5808 5809 5810 5811 5811 5811 5812 5812 5811 5811 5810 5810 5809 5807 5806 5805 5803 5801 5798 5795 5793 5790 5786 5783 5779 5776 5772 5768 5764 5760 5756
5767 5771 5775 5779 5782 5786 5789 5792 5794 5796 5798 5800 5801 5802 5803 5804 5805 5805 5805 5805 5805 5805 5804 5803 5802 5801 5799 5798 5796 5794 5792 5789 5786 5783 5779 5776 5772 5768 5764 5760 5756 5751 5747
5759 5763 5767 5771 5775 5779 5782 5784 5787 5789 5791 5793 5794 5795 5796 5797 5798 5798 5798 5799 5798 5798 5797 5797 5796 5794 5792 5791 5789 5787 5785 5784 5780 5776 5772 5768 5764 5760 5756 5752 5747 5742 5737
5752 5756 5760 5764 5767 5771 5774 5777 5779 5781 5783 5785 5787 5788 5790 5790 5791 5791 5792 5792 5791 5791 5790 5789 5789 5787 5786 5784 5782 5780 5777 5775 5773 5770 5766 5761 5756 5752 5748 5742 5737 5732 5727
5744 5748 5752 5755 5759 5763 5766 5768 5771 5774 5776 5777 5779 5781 5782 5782 5783 5784 5784 5785 5784 5784 5783 5782 5781 5780 5778 5776 5774 5772 5769 5766 5763 5761 5758 5753 5748 5743 5738 5733 5727 5722 5716
5735 5739 5744 5747 5751 5754 5757 5760 5763 5766 5768 5769 5771 5773 5774 5775 5776 5777 5777 5777 5777 5777 5776 5775 5774 5772 5771 5769 5766 5764 5761 5758 5755 5752 5749 5745 5740 5735 5729 5723 5717 5711 5705
5726 5730 5735 5738 5742 5745 5748 5751 5754 5757 5759 5761 5763 5765 5766 5767 5768 5769 5770 5770 5769 5769 5768 5767 5766 5764 5763 5761 5758 5755 5752 5749 5746 5742 5739 5736 5731 5726 5720 5713 5706 5700 5694